Weather History for Bluefield, WV

Change the Weather History Date:

Thursday, February 28, 2013

  Actual Average Record
Temperature  
Mean Temperature 31 °F 40 °F  
Max Temperature 33 °F 49 °F 67 °F (2012)
Min Temperature 29 °F 32 °F 10 °F (2002)
Degree Days  
Heating Degree Days 34 25  
Month to date heating degree days 826 773  
Since 1 July heating degree days 3402 3493  
Cooling Degree Days 0 0  
Month to date cooling degree days 0 0  
Year to date cooling degree days 1 0  
Moisture  
Dew Point 24 °F    
Average Humidity 77    
Maximum Humidity 85    
Minimum Humidity 69    
Precipitation  
Precipitation 0.04 in 0.11 in 1.41 in (2011)
Month to date precipitation 1.67 2.76  
Year to date precipitation 7.67 5.66  
Snow  
Snow 0.40 in - - ()
Month to date snowfall 12.6  
Since 1 July snowfall 41.1  
Snow Depth 1.00 in    
Sea Level Pressure  
Sea Level Pressure 29.74 in    
Wind  
Wind Speed 13 mph (WNW)    
Max Wind Speed 23 mph    
Max Gust Speed 35 mph    
Visibility 6 miles    
Events Rain , Snow    
T = Trace of Precipitation, MM = Missing Value Source: NWS Daily Summary

Daily Weather History Graph

Daily Weather History Graph

Search for Another Location

Airport:

Trip Planner

Search our weather history database for the weather conditions in past years. The results will help you decide how hot, cold, wet, or windy it might be!

Date:

Astronomy

Feb. 28, 2013 Rise Set
Actual Time 6:57 AM EST 6:18 PM EST
Civil Twilight 6:30 AM EST 6:44 PM EST
Nautical Twilight 6:00 AM EST 7:14 PM EST
Astronomical Twilight 5:30 AM EST 7:44 PM EST
Moon 9:37 PM EST (2/28) 8:10 AM EST (2/28)
Length of Visible Light 12h 13m
Length of Day
11h 21m
Waning Gibbous, 91% of the Moon is Illuminated
Feb 28
Waning Gibbous
Mar 4
Last Quarter
Mar 11
New
Mar 19
First Quarter
Mar 27
Full

Hourly Weather History & Observations

Time (EST) Temp. Windchill Dew Point Humidity Pressure Visibility Wind Dir Wind Speed Gust Speed Precip Events Conditions
12:23 AM 32.0 °F 22.5 °F 26.6 °F 80% 29.68 in 6.0 mi West 12.7 mph 21.9 mph 0.00 in Snow Light Snow
12:32 AM 32.0 °F 22.5 °F 26.6 °F 80% 29.68 in 2.5 mi West 12.7 mph 17.3 mph 0.00 in Snow Light Snow
12:52 AM 32.0 °F 24.2 °F 27.0 °F 82% 29.71 in 2.0 mi WNW 9.2 mph 19.6 mph 0.01 in Snow Light Snow
1:12 AM 30.2 °F 17.4 °F 26.6 °F 86% 29.68 in 3.0 mi West 20.7 mph 28.8 mph 0.00 in Snow Light Snow
1:37 AM 30.2 °F 18.5 °F 24.8 °F 80% 29.68 in 9.0 mi WNW 17.3 mph 26.5 mph 0.00 in Snow Light Snow
1:52 AM 30.9 °F 20.7 °F 24.1 °F 76% 29.70 in 8.0 mi WNW 13.8 mph 23.0 mph 0.00 in Snow Light Snow
2:02 AM 30.2 °F 21.3 °F 24.8 °F 80% 29.67 in 7.0 mi West 10.4 mph - 0.00 in Snow Light Snow
2:49 AM 30.2 °F 19.3 °F 23.0 °F 75% 29.66 in 10.0 mi West 15.0 mph 23.0 mph 0.00 in   Overcast
2:52 AM 30.9 °F 20.7 °F 23.0 °F 72% 29.69 in 10.0 mi West 13.8 mph 23.0 mph 0.00 in   Overcast
3:42 AM 30.2 °F 23.4 °F 24.8 °F 80% 29.66 in 5.0 mi Variable 6.9 mph 20.7 mph 0.00 in Snow Light Snow
3:52 AM 30.0 °F 21.1 °F 24.1 °F 79% 29.68 in 5.0 mi WNW 10.4 mph - 0.00 in Snow Light Snow
4:52 AM 30.0 °F 18.7 °F 25.0 °F 82% 29.68 in 7.0 mi West 16.1 mph 21.9 mph 0.00 in Snow Light Snow
5:52 AM 30.0 °F 21.1 °F 24.1 °F 79% 29.69 in 5.0 mi WNW 10.4 mph 19.6 mph 0.00 in Snow Light Snow
6:52 AM 30.0 °F 18.7 °F 23.0 °F 75% 29.70 in 8.0 mi West 16.1 mph 25.3 mph 0.00 in Snow Light Snow
7:02 AM 28.4 °F 16.6 °F 21.2 °F 74% 29.67 in 3.0 mi WNW 16.1 mph 27.6 mph 0.00 in Snow Light Snow
7:09 AM 28.4 °F 15.8 °F 21.2 °F 74% 29.67 in 2.0 mi WNW 18.4 mph 27.6 mph 0.00 in Snow Light Snow
7:31 AM 28.4 °F 18.5 °F 23.0 °F 80% 29.67 in 2.5 mi West 11.5 mph 20.7 mph 0.00 in Snow Light Snow
7:42 AM 28.4 °F 18.0 °F 23.0 °F 80% 29.68 in 6.0 mi WNW 12.7 mph 23.0 mph 0.00 in Snow Light Snow
7:52 AM 28.9 °F 18.2 °F 23.0 °F 78% 29.72 in 5.0 mi WNW 13.8 mph 24.2 mph 0.00 in Snow Light Snow
8:27 AM 28.4 °F 17.0 °F 21.2 °F 74% 29.69 in 1.8 mi West 15.0 mph 24.2 mph 0.00 in Snow Light Snow
8:52 AM 28.9 °F 18.6 °F 23.0 °F 78% 29.74 in 2.5 mi West 12.7 mph 24.2 mph 0.00 in Snow Light Snow
9:07 AM 28.4 °F 19.7 °F 21.2 °F 74% 29.70 in 3.0 mi West 9.2 mph 20.7 mph 0.00 in Snow Light Snow
9:33 AM 30.2 °F 17.4 °F 21.2 °F 69% 29.70 in 4.0 mi West 20.7 mph 28.8 mph 0.00 in Snow Light Snow
9:52 AM 28.9 °F 15.8 °F 19.9 °F 69% 29.74 in 6.0 mi West 20.7 mph 28.8 mph 0.00 in Snow Light Snow
10:52 AM 28.9 °F 17.7 °F 21.0 °F 72% 29.76 in 7.0 mi West 15.0 mph 23.0 mph 0.00 in Snow Light Snow
11:52 AM 30.0 °F 19.5 °F 19.9 °F 66% 29.76 in 10.0 mi West 13.8 mph 25.3 mph 0.00 in   Overcast
12:52 PM 30.0 °F 21.7 °F 21.0 °F 69% 29.77 in 10.0 mi WNW 9.2 mph 19.6 mph N/A   Overcast
1:52 PM 30.0 °F 21.1 °F 21.0 °F 69% 29.77 in 10.0 mi WNW 10.4 mph 25.3 mph N/A   Overcast
2:30 PM 30.2 °F 21.9 °F 21.2 °F 69% 29.72 in 10.0 mi West 9.2 mph 21.9 mph N/A   Overcast
2:52 PM 30.0 °F 21.7 °F 21.9 °F 72% 29.77 in 10.0 mi WNW 9.2 mph 16.1 mph N/A   Overcast
4:52 PM 28.9 °F 16.9 °F 23.0 °F 78% 29.80 in 10.0 mi WNW 17.3 mph 25.3 mph N/A   Overcast
5:52 PM 28.9 °F 19.2 °F 24.1 °F 82% 29.83 in 8.0 mi WNW 11.5 mph 23.0 mph N/A   Overcast
6:44 PM 28.4 °F 18.5 °F 24.8 °F 86% 29.80 in 5.0 mi West 11.5 mph 26.5 mph 0.00 in Rain Light Freezing Rain
6:52 PM 28.9 °F 18.2 °F 25.0 °F 85% 29.85 in 5.0 mi WNW 13.8 mph 23.0 mph 0.00 in Rain Light Freezing Rain
7:52 PM 28.9 °F 18.2 °F 25.0 °F 85% 29.86 in 6.0 mi WNW 13.8 mph 23.0 mph 0.00 in Rain Light Freezing Rain
8:52 PM 28.9 °F 19.2 °F 25.0 °F 85% 29.86 in 7.0 mi WNW 11.5 mph 19.6 mph 0.00 in Rain Light Freezing Rain
9:52 PM 28.9 °F 19.2 °F 25.0 °F 85% 29.87 in 7.0 mi WNW 11.5 mph 19.6 mph 0.00 in Rain Light Freezing Rain
10:49 PM 30.2 °F 19.8 °F 26.6 °F 86% 29.81 in 5.0 mi WNW 13.8 mph 20.7 mph 0.00 in Rain Light Freezing Rain
10:52 PM 30.0 °F 23.2 °F 25.0 °F 82% 29.87 in 5.0 mi West 6.9 mph 20.7 mph 0.00 in Rain Light Freezing Rain
11:02 PM 30.2 °F 19.8 °F 24.8 °F 80% 29.82 in 5.0 mi West 13.8 mph - 0.00 in Rain Light Freezing Rain
11:24 PM 28.4 °F 18.5 °F 26.6 °F 93% 29.82 in 4.0 mi WNW 11.5 mph - 0.00 in Rain Light Freezing Rain
11:52 PM 30.0 °F 21.1 °F 26.1 °F 85% 29.87 in 4.0 mi WNW 10.4 mph 18.4 mph 0.00 in Rain Light Freezing Rain